Woolwich, ME

2:30 PM EST on December 08, 2016 (GMT -0500)
Wiscasset

Weather History for KIWI - September, 2013

Change the Weather History Date:

Sunday, September 29, 2013

  Actual Average Record
Temperature  
Mean Temperature 53 °F -  
Max Temperature 64 °F 61 °F 75 °F (2010)
Min Temperature 42 °F 40 °F 28 °F (2000)
Degree Days  
Heating Degree Days 12    
Growing Degree Days 3 (Base 50)    
Moisture  
Dew Point 47 °F    
Average Humidity 91    
Maximum Humidity 100    
Minimum Humidity 52    
Precipitation  
Precipitation 0.01 in - - ()
Sea Level Pressure  
Sea Level Pressure 30.23 in    
Wind  
Wind Speed 1 mph (South)    
Max Wind Speed 7 mph    
Max Gust Speed -    
Visibility 4 miles    
Events Fog    
Averages and records for this station are not official NWS values.
T = Trace of Precipitation, MM = Missing Value Source: NWS Daily Summary

Daily Weather History Graph

Daily Weather History Graph

Search for Another Location

Airport or City:

Trip Planner

Search our weather history database for the weather conditions in past years. The results will help you decide how hot, cold, wet, or windy it might be!

Date:

Astronomy

Sep. 29, 2013 Rise Set
Actual Time 6:34 AM EDT 6:22 PM EDT
Civil Twilight 6:05 AM EDT 6:51 PM EDT
Nautical Twilight 5:32 AM EDT 7:25 PM EDT
Astronomical Twilight 4:58 AM EDT 7:59 PM EDT
Moon 1:03 AM EDT (9/29) 3:25 PM EDT (9/29)
Length of Visible Light 12h 46m
Length of Day
11h 48m
Waning Crescent, 27% of the Moon is Illuminated
Sep 29
Waning Crescent
Oct 4
New
Oct 11
First Quarter
Oct 18
Full
Oct 26
Last Quarter

Hourly Weather History & Observations

Time (EDT) Temp. Dew Point Humidity Pressure Visibility Wind Dir Wind Speed Gust Speed Precip Events Conditions
12:53 AM 44.1 °F 42.1 °F 93% 30.29 in 10.0 mi Calm Calm - N/A   Clear
1:29 AM 42.8 °F 41.0 °F 93% 30.28 in 10.0 mi Calm Calm - N/A   Scattered Clouds
1:38 AM 42.8 °F 41.0 °F 93% 30.28 in 10.0 mi Calm Calm - N/A   Mostly Cloudy
1:53 AM 43.0 °F 39.9 °F 89% 30.28 in 10.0 mi Calm Calm - N/A   Overcast
2:18 AM 42.8 °F 42.8 °F 100% 30.28 in 1.5 mi Calm Calm - N/A   Overcast
2:20 AM 42.8 °F 42.8 °F 100% 30.27 in 0.8 mi Calm Calm - N/A   Overcast
2:27 AM 44.6 °F 42.8 °F 93% 30.27 in 0.2 mi Calm Calm - N/A Fog Fog
2:53 AM 45.0 °F 44.1 °F 97% 30.27 in 0.2 mi Calm Calm - N/A Fog Fog
3:53 AM 46.9 °F 46.0 °F 97% 30.27 in 0.2 mi Calm Calm - N/A Fog Fog
4:15 AM 46.4 °F 46.4 °F 100% 30.27 in 0.5 mi Calm Calm - N/A Fog Fog
4:26 AM 46.4 °F 44.6 °F 93% 30.27 in 1.2 mi Calm Calm - N/A   Overcast
4:36 AM 46.4 °F 46.4 °F 100% 30.26 in 0.2 mi Calm Calm - N/A Fog Fog
4:53 AM 46.9 °F 46.0 °F 97% 30.26 in 0.2 mi Calm Calm - N/A Fog Fog
5:53 AM 46.9 °F 46.0 °F 97% 30.26 in 0.2 mi Calm Calm - 0.01 in Fog Fog
6:46 AM 44.6 °F 44.6 °F 100% 30.25 in 0.2 mi Calm Calm - N/A Fog Fog
6:53 AM 45.0 °F 44.1 °F 97% 30.25 in 0.2 mi Calm Calm - N/A Fog Fog
7:15 AM 44.6 °F 44.6 °F 100% 30.25 in 1.5 mi Calm Calm - N/A   Overcast
7:19 AM 44.6 °F 44.6 °F 100% 30.25 in 3.0 mi Calm Calm - N/A   Overcast
7:25 AM 44.6 °F 44.6 °F 100% 30.25 in 1.5 mi Calm Calm - N/A   Overcast
7:27 AM 44.6 °F 44.6 °F 100% 30.25 in 0.8 mi Calm Calm - N/A   Overcast
7:36 AM 44.6 °F 44.6 °F 100% 30.26 in 0.2 mi Calm Calm - N/A Fog Fog
7:53 AM 46.0 °F 45.0 °F 96% 30.26 in 0.5 mi Calm Calm - N/A Fog Fog
8:53 AM 48.9 °F 48.9 °F 100% 30.26 in 0.2 mi Calm Calm - N/A Fog Fog
9:45 AM 51.8 °F 51.8 °F 100% 30.25 in 1.5 mi Calm Calm - N/A   Overcast
9:53 AM 52.0 °F 52.0 °F 100% 30.25 in 2.0 mi Calm Calm - N/A   Overcast
10:17 AM 51.8 °F 51.8 °F 100% 30.25 in 1.2 mi SSE 3.5 mph - N/A   Overcast
10:26 AM 51.8 °F 51.8 °F 100% 30.25 in 0.8 mi Calm Calm - N/A   Overcast
10:31 AM 53.6 °F 51.8 °F 94% 30.25 in 1.5 mi Calm Calm - N/A   Overcast
10:34 AM 53.6 °F 51.8 °F 94% 30.25 in 3.0 mi Calm Calm - N/A   Overcast
10:53 AM 54.0 °F 52.0 °F 93% 30.25 in 10.0 mi South 4.6 mph - N/A   Mostly Cloudy
11:03 AM 55.4 °F 53.6 °F 94% 30.25 in 10.0 mi Calm Calm - N/A   Scattered Clouds
11:53 AM 61.0 °F 51.1 °F 70% 30.24 in 10.0 mi South 5.8 mph - N/A   Clear
12:53 PM 64.0 °F 48.0 °F 56% 30.23 in 10.0 mi SE 5.8 mph - N/A   Clear
1:53 PM 64.0 °F 48.0 °F 56% 30.21 in 10.0 mi South 5.8 mph - N/A   Clear
2:53 PM 63.0 °F 46.9 °F 56% 30.21 in 10.0 mi South 6.9 mph - N/A   Clear
3:53 PM 63.0 °F 45.0 °F 52% 30.17 in 10.0 mi SSW 4.6 mph - N/A   Clear
4:53 PM 62.1 °F 44.1 °F 52% 30.17 in 10.0 mi South 4.6 mph - N/A   Clear
5:53 PM 57.9 °F 46.9 °F 67% 30.17 in 10.0 mi South 3.5 mph - N/A   Clear
6:53 PM 54.0 °F 51.1 °F 90% 30.17 in 10.0 mi Calm Calm - N/A   Clear
7:53 PM 50.0 °F 46.9 °F 89% 30.17 in 10.0 mi Calm Calm - N/A   Clear
8:04 PM 48.2 °F 46.4 °F 93% 30.17 in 10.0 mi Calm Calm - N/A   Partly Cloudy
8:29 PM 48.2 °F 46.4 °F 93% 30.17 in 10.0 mi Calm Calm - N/A   Mostly Cloudy
8:53 PM 51.1 °F 48.0 °F 89% 30.17 in 10.0 mi Calm Calm - N/A   Overcast
9:24 PM 51.8 °F 50.0 °F 94% 30.17 in 1.5 mi Calm Calm - N/A   Overcast
9:27 PM 51.8 °F 51.8 °F 100% 30.17 in 0.8 mi Calm Calm - N/A   Overcast
9:53 PM 52.0 °F 51.1 °F 97% 30.17 in 0.5 mi Calm Calm - N/A Fog Fog
10:04 PM 51.8 °F 51.8 °F 100% 30.16 in 1.5 mi Calm Calm - N/A   Overcast
10:30 PM 51.8 °F 50.0 °F 94% 30.16 in 2.5 mi Calm Calm - N/A   Overcast
10:35 PM 51.8 °F 50.0 °F 94% 30.16 in 1.2 mi Calm Calm - N/A   Overcast
10:44 PM 51.8 °F 50.0 °F 94% 30.16 in 0.5 mi Calm Calm - N/A Fog Fog
10:53 PM 51.1 °F 50.0 °F 96% 30.15 in 0.2 mi Calm Calm - N/A Fog Fog
11:14 PM 51.8 °F 50.0 °F 94% 30.15 in 0.2 mi Calm Calm - N/A Fog Fog
11:53 PM 48.9 °F 48.0 °F 97% 30.15 in 0.5 mi Calm Calm - N/A Fog Fog